Estació meteorològica de Calldetenes (Osona, Plana de Vic)

Consulta les dades en temps real de l'estació meteorològica de Calldetenes





Hora UTC 19:45
Temperatura 12.8 ºC
Sòl 15 cm 12.9 ºC
Humitat 84.2 %
Pressió 1013.1 hPa
Pluja 0.0 mm
Velocitat vent 7.2 km/h
Direcció vent ENE
Radiació solar 0.1 W/m²

Webcam

Dades diàries 2026-05-06



Hora UTC (hivern +1h; estiu +2h)
Temperatura (ºC) Humitat (%) Pressió (hPa) Velocitat vent (km/h) Precipitació (mm) Radiació solar (W/m²)
Hora UTC Aire Sòl 15 cm Humitat Pressió Vel. Dir. Vel. Max Dir. Intent. màx 5 min. Rad. Sol.
00:05 7.1 6.7 100.0 1011.7 4.2 E 4.2 E 0.0 0.2
00:10 7.2 6.8 100.0 1011.7 3.3 ESE 5.3 E 0.0 0.1
00:15 7.0 6.8 100.0 1011.7 2.8 ESE 4.9 ESE 0.0 0.1
00:20 6.8 6.6 99.8 1011.7 3.0 ESE 4.9 ESE 0.0 0.1
00:25 6.5 6.4 99.7 1011.7 3.0 ESE 4.9 SE 0.0 0.1
00:30 6.4 6.3 99.6 1011.7 2.5 SE 4.2 SE 0.0 0.1
00:35 6.3 6.1 99.8 1011.7 1.9 SSE 2.8 SE 0.0 0.1
00:40 6.4 6.0 100.0 1011.7 1.5 ESE 2.8 ESE 0.0 0.1
00:45 6.2 5.9 99.9 1011.6 0.6 ESE 2.8 SE 0.0 0.1
00:50 6.0 5.7 99.8 1011.6 1.1 ESE 3.2 ESE 0.0 0.1
00:55 5.9 5.6 100.0 1011.6 1.7 ESE 4.6 ESE 0.0 0.1
01:00 6.1 5.6 100.0 1011.6 3.1 ESE 4.2 ESE 0.0 0.1
01:05 5.9 5.7 100.0 1011.6 3.8 E 5.6 ESE 0.0 0.1
01:10 6.0 5.7 100.0 1011.6 3.7 E 5.6 ESE 0.0 0.1
01:15 6.1 5.9 100.0 1011.6 2.2 E 3.9 ENE 0.0 0.1
01:20 6.5 6.2 100.0 1011.6 3.0 ESE 6.7 E 0.0 0.1
01:25 7.0 6.6 100.0 1011.5 2.6 ESE 4.2 SE 0.0 0.1
01:30 7.1 7.0 100.0 1011.5 1.4 SSW 3.5 SSW 0.0 0.1
01:35 7.2 7.2 100.0 1011.5 0.3 NE 1.4 NNE 0.0 0.1
01:40 7.1 7.3 100.0 1011.5 0.5 ENE 2.8 ENE 0.0 0.2
01:45 7.3 7.4 100.0 1011.4 0.8 SE 3.2 ENE 0.0 0.1
01:50 7.5 7.5 100.0 1011.4 1.7 E 4.9 ESE 0.0 0.1
01:55 7.8 7.7 100.0 1011.4 2.8 SE 4.9 ESE 0.0 0.1
02:00 8.0 7.9 100.0 1011.4 2.9 SE 5.3 SSE 0.0 0.1
02:05 8.3 8.1 100.0 1011.5 2.2 SE 3.9 SE 0.0 0.1
02:10 8.3 8.2 100.0 1011.5 2.0 SSE 4.9 SE 0.0 0.1
02:15 8.1 8.2 100.0 1011.4 2.4 S 3.5 SW 0.0 0.1
02:20 8.1 8.3 100.0 1011.4 1.9 SSW 3.9 SSW 0.0 0.1
02:25 8.1 8.3 100.0 1011.4 1.0 SSW 3.2 SW 0.0 0.1
02:30 8.2 8.4 100.0 1011.4 3.2 SW 4.9 SW 0.0 0.1
02:35 8.2 8.4 100.0 1011.6 3.5 SW 5.6 SW 0.0 0.1
02:40 8.2 8.5 100.0 1011.6 3.7 SSW 6.0 SSW 0.0 0.2
02:45 8.1 8.5 100.0 1011.6 3.8 S 5.3 S 0.0 0.2
02:50 8.0 8.4 100.0 1011.6 2.4 SE 4.2 SSW 0.0 0.1
02:55 7.9 8.3 100.0 1011.6 2.9 ESE 6.0 SE 0.0 0.1
03:00 7.9 8.2 100.0 1011.6 2.7 E 5.6 ESE 0.0 0.1
03:05 7.8 8.1 100.0 1011.5 3.0 ESE 6.4 ESE 0.0 0.1
03:10 7.6 8.0 100.0 1011.5 3.2 E 5.3 E 0.0 0.1
03:15 7.3 7.7 100.0 1011.5 1.5 SE 3.9 SE 0.0 0.1
03:20 7.1 7.5 100.0 1011.5 2.1 ESE 3.9 E 0.0 0.1
03:25 7.0 7.3 100.0 1011.4 1.2 SSE 3.2 ESE 0.0 0.1
03:30 6.8 7.1 100.0 1011.4 0.3 N 1.8 NNE 0.0 0.1
03:35 6.6 6.9 100.0 1011.5 0.6 N 2.1 N 0.0 0.1
03:40 6.5 6.8 100.0 1011.5 0.0 NNE 0.0 N 0.0 0.1
03:45 6.5 6.7 100.0 1011.5 0.0 NNE 0.0 WNW 0.0 0.1
03:50 6.6 6.8 100.0 1011.5 0.8 N 2.1 N 0.0 0.1
03:55 6.7 6.9 100.0 1011.5 2.4 SE 5.3 SSE 0.0 0.1
04:00 6.8 7.0 100.0 1011.5 3.3 S 5.6 SSE 0.0 0.1
04:05 6.8 7.1 100.0 1011.6 1.8 S 3.5 S 0.0 0.1
04:10 6.7 7.1 100.0 1011.6 2.9 S 4.6 S 0.0 0.1
04:15 6.4 7.0 100.0 1011.6 2.7 S 4.9 SSW 0.0 0.1
04:20 6.3 6.8 100.0 1011.6 4.0 S 6.0 S 0.0 0.2
04:25 6.3 6.8 100.0 1011.7 3.4 S 4.9 SSE 0.0 0.3
04:30 6.2 6.7 100.0 1011.7 2.3 SE 4.2 ESE 0.0 0.5
04:35 6.2 6.6 100.0 1011.7 3.1 SSE 4.6 ESE 0.0 1.2
04:40 6.2 6.5 100.0 1011.7 4.4 SE 7.1 SSE 0.0 2.2
04:45 6.1 6.4 100.0 1011.8 3.2 S 6.7 SSW 0.0 3.7
04:50 6.1 6.3 100.0 1011.8 2.7 SSE 4.6 SSE 0.0 5.4
04:55 6.0 6.2 100.0 1011.8 1.7 SSW 4.6 S 0.0 7.2
05:00 6.1 6.1 100.0 1011.8 4.0 SSE 7.8 SSW 0.0 9.2
05:05 5.9 6.0 100.0 1011.8 1.5 W 4.6 W 0.0 11.5
05:10 5.8 5.8 100.0 1011.8 0.0 W 1.1 W 0.0 13.9
05:15 5.8 5.7 100.0 1011.9 0.8 NW 2.5 WNW 0.0 15.9
05:20 6.0 5.6 100.0 1011.9 4.7 SSW 8.8 SSW 0.0 18.1
05:25 6.1 5.9 100.0 1012.1 1.6 SSW 3.9 SW 0.0 22.5
05:30 6.2 6.0 100.0 1012.1 2.9 SSW 4.6 SSW 0.0 30.1
05:35 6.2 6.2 100.0 1012.2 1.5 SE 3.2 SSW 0.0 35.9
05:40 6.3 6.2 100.0 1012.2 1.1 ESE 2.8 ENE 0.0 37.4
05:45 6.4 6.3 100.0 1012.4 0.8 E 2.8 E 0.0 39.3
05:50 6.7 6.4 100.0 1012.4 5.2 ESE 7.8 ESE 0.0 38.9
05:55 6.9 6.6 100.0 1012.5 4.4 ESE 8.1 ESE 0.0 45.2
06:00 7.1 6.7 100.0 1012.5 3.1 ESE 5.3 ESE 0.0 49.9
06:05 7.4 6.9 100.0 1012.5 2.6 E 5.3 ESE 0.0 57.4
06:10 7.7 7.2 100.0 1012.5 2.2 E 4.2 ENE 0.0 49.8
06:15 7.9 7.5 100.0 1012.5 1.0 E 2.8 NE 0.0 48.5
06:20 8.0 7.6 100.0 1012.5 1.7 ENE 4.6 E 0.0 50.5
06:25 8.3 7.7 100.0 1012.6 2.1 ENE 3.9 E 0.0 213.2
06:30 8.4 7.9 100.0 1012.6 1.6 NE 2.8 NE 0.0 259.1
06:35 8.4 8.0 100.0 1012.6 0.9 N 2.8 N 0.0 273.9
06:40 8.4 8.1 100.0 1012.6 3.3 WNW 12.4 W 0.0 288.2
06:45 8.3 8.1 100.0 1012.6 8.9 W 16.9 W 0.0 305.7
06:50 8.6 8.2 99.0 1012.6 5.3 W 10.2 NNW 0.0 312.2
06:55 8.8 8.4 97.0 1012.6 8.1 NW 13.8 WNW 0.0 333.6
07:00 9.1 8.5 93.8 1012.6 8.1 WNW 14.8 W 0.0 341.6
07:05 9.4 8.5 89.1 1012.6 7.4 WNW 14.8 WNW 0.0 353.0
07:10 9.6 8.5 86.5 1012.6 8.7 W 17.6 WNW 0.0 369.0
07:15 9.8 8.6 84.0 1012.6 11.0 WNW 17.6 WNW 0.0 380.6
07:20 9.8 8.6 85.0 1012.6 4.5 NW 9.5 N 0.0 380.4
07:25 10.0 8.6 85.1 1012.6 3.6 NW 8.5 W 0.0 236.4
07:30 10.1 8.8 83.7 1012.6 5.2 NNW 9.5 NW 0.0 413.8
07:35 10.2 9.0 83.3 1012.7 5.7 WNW 9.2 NW 0.0 520.2
07:40 10.3 9.3 81.7 1012.7 8.7 WNW 13.8 W 0.0 320.2
07:45 10.3 9.4 81.6 1012.7 6.6 NW 12.4 NNW 0.0 250.5
07:50 10.5 9.7 81.9 1012.7 4.8 NW 12.0 NW 0.0 254.5
07:55 10.7 10.3 81.7 1012.8 5.5 NNW 10.9 NW 0.0 214.3
08:00 10.8 10.8 80.3 1012.8 4.0 NW 8.1 NW 0.0 253.9
08:05 10.8 11.2 79.3 1012.9 4.0 NNW 7.4 NW 0.0 306.6
08:10 11.1 11.5 79.3 1012.9 4.2 W 7.8 WSW 0.0 372.9
08:15 11.0 11.7 77.3 1012.9 6.5 W 10.6 NW 0.0 304.8
08:20 10.9 11.5 77.7 1012.9 2.2 N 6.7 W 0.0 241.2
08:25 10.9 11.3 79.5 1012.9 5.5 NE 7.8 NNE 0.0 487.0
08:30 11.1 11.0 79.9 1012.9 5.8 ENE 9.5 NE 0.0 640.0
08:35 11.4 11.1 79.5 1013.0 2.2 ENE 5.6 ENE 0.0 699.1
08:40 11.6 11.5 76.6 1013.0 3.8 N 7.8 N 0.0 720.5
08:45 11.5 11.7 76.9 1013.1 5.6 N 10.2 NNW 0.0 743.4
08:50 11.4 11.5 76.2 1013.1 4.1 NW 6.0 NNW 0.0 412.0
08:55 11.3 11.2 76.3 1013.0 3.0 WNW 5.6 WNW 0.0 690.8
09:00 11.4 10.9 75.3 1013.0 2.0 W 3.9 S 0.0 593.7
09:05 11.5 10.8 75.4 1013.0 1.6 SSW 5.6 N 0.0 745.4
09:10 12.0 11.0 76.8 1013.0 4.0 NNW 7.8 NNE 0.0 721.2
09:15 12.6 11.2 72.5 1013.1 4.7 WNW 10.6 WNW 0.0 601.3
09:20 12.7 11.4 73.0 1013.1 4.8 N 9.2 NW 0.0 745.2
09:25 12.5 11.7 73.1 1013.2 4.4 NNE 9.9 N 0.0 754.1
09:30 12.6 12.1 73.2 1013.2 6.6 NNE 10.9 NNE 0.0 771.6
09:35 12.8 12.7 72.2 1013.2 4.3 NE 9.9 NE 0.0 772.9
09:40 13.0 13.4 69.6 1013.2 3.8 SSE 7.1 ESE 0.0 788.7
09:45 13.1 14.2 69.6 1013.2 3.9 S 6.7 SSW 0.0 803.0
09:50 13.7 14.8 70.3 1013.2 6.0 ENE 11.3 NNE 0.0 797.7
09:55 13.4 15.0 70.6 1013.1 7.1 N 12.7 NNW 0.0 801.0
10:00 13.9 15.3 69.9 1013.1 6.2 NE 12.4 NNE 0.0 805.0
10:05 14.0 15.5 69.8 1013.0 3.5 NE 7.4 ENE 0.0 812.0
10:10 14.4 16.0 67.8 1013.0 4.8 N 8.1 N 0.0 819.0
10:15 14.6 16.4 67.9 1013.0 5.8 NNW 9.2 NNW 0.0 825.0
10:20 14.9 16.8 65.9 1013.0 5.7 NW 9.5 WNW 0.0 833.0
10:25 15.4 17.1 63.1 1012.8 6.4 NW 9.9 NNW 0.0 843.0
10:30 14.9 17.1 64.8 1012.8 5.5 NNE 10.2 N 0.0 850.0
10:35 15.1 17.0 66.0 1012.7 5.2 NNW 10.2 NNW 0.0 860.0
10:40 15.6 17.4 65.4 1012.7 7.1 NNW 15.2 WNW 0.0 865.0
10:45 15.4 17.6 64.8 1012.6 6.6 N 13.8 N 0.0 871.0
10:50 15.5 17.7 65.0 1012.6 7.4 N 15.2 NW 0.0 876.0
10:55 15.8 18.0 61.7 1012.5 8.3 W 16.6 W 0.0 884.0
11:00 16.0 18.5 63.3 1012.5 6.7 N 12.7 NNW 0.0 890.0
11:05 16.0 18.7 64.1 1012.5 6.7 N 12.4 NNW 0.0 896.0
11:10 16.1 19.1 62.9 1012.5 5.1 NNW 10.9 NW 0.0 903.0
11:15 16.3 20.0 63.6 1012.3 6.6 NW 11.6 NW 0.0 909.0
11:20 16.2 21.1 62.0 1012.3 6.5 NNW 11.6 NNW 0.0 922.0
11:25 16.8 22.1 59.1 1012.3 5.0 W 13.4 WNW 0.0 946.0
11:30 17.1 23.2 57.4 1012.3 7.9 NW 15.9 NW 0.0 884.0
11:35 17.1 23.6 59.7 1012.1 8.9 NW 17.6 NW 0.0 975.0
11:40 16.9 23.8 58.1 1012.1 7.4 NNW 15.2 NW 0.0 974.0
11:45 16.8 24.1 57.7 1012.1 4.8 NW 12.0 NW 0.0 337.8
11:50 16.5 22.8 58.6 1012.1 9.1 NW 14.5 NW 0.0 334.0
11:55 16.7 21.4 58.5 1012.1 7.2 NW 12.0 NNW 0.0 978.0
12:00 17.2 22.7 57.2 1012.1 2.9 NNW 7.4 NW 0.0 684.4
12:05 17.8 23.7 52.2 1012.0 3.9 SSW 9.2 W 0.0 323.4
12:10 17.0 22.7 55.8 1012.0 4.7 SW 12.4 SSW 0.0 245.9
12:15 16.7 21.0 54.3 1012.0 3.2 S 7.4 WSW 0.0 724.7
12:20 17.2 21.5 55.3 1012.0 1.9 NNE 4.9 NNW 0.0 920.0
12:25 18.0 23.7 53.6 1012.0 4.9 SSW 13.4 W 0.0 854.0
12:30 18.7 25.2 53.6 1012.0 7.7 W 17.6 SW 0.0 1060.0
12:35 18.4 26.6 50.9 1012.0 6.1 WSW 16.9 SSW 0.0 1108.0
12:40 18.7 28.0 50.6 1012.0 4.0 WNW 10.9 NW 0.0 1071.0
12:45 19.1 28.9 50.7 1012.0 5.5 WNW 12.7 SW 0.0 901.0
12:50 19.1 28.7 43.3 1012.0 6.9 WSW 17.3 W 0.0 881.0
12:55 18.8 28.0 41.9 1011.9 12.2 WSW 20.8 WSW 0.0 930.0
13:00 18.7 27.3 43.6 1011.9 12.4 WSW 23.3 WSW 0.0 922.0
13:05 18.6 26.8 41.4 1011.8 10.4 WSW 17.6 WSW 0.0 855.0
13:10 18.5 26.0 43.7 1011.8 10.3 WSW 22.9 SSW 0.0 357.8
13:15 19.0 25.5 40.4 1011.8 15.0 SW 27.9 WSW 0.0 82.9
13:20 18.6 24.5 41.1 1011.8 12.2 W 21.9 W 0.0 84.7
13:25 18.7 23.2 40.1 1011.6 14.0 WSW 23.3 W 0.0 137.9
13:30 18.7 22.0 41.0 1011.6 10.7 WSW 25.1 WSW 0.0 819.0
13:35 19.3 21.4 41.3 1011.5 11.1 SW 21.5 S 0.0 873.0
13:40 19.4 21.0 40.4 1011.5 13.1 WSW 24.3 WSW 0.0 756.2
13:45 19.4 20.6 38.7 1011.4 10.8 WSW 21.9 WSW 0.0 877.0
13:50 19.5 20.3 38.9 1011.4 13.1 W 25.4 W 0.0 867.0
13:55 19.3 19.9 40.3 1011.3 17.2 SW 29.6 WSW 0.0 862.0
14:00 19.5 19.8 41.2 1011.3 14.9 SW 26.5 WSW 0.0 850.0
14:05 19.4 19.7 38.8 1011.2 16.9 WSW 27.5 WSW 0.0 838.0
14:10 19.3 19.5 35.6 1011.2 19.3 WSW 31.4 WSW 0.0 822.0
14:15 19.2 19.3 38.1 1011.0 14.4 WSW 27.2 WSW 0.0 794.0
14:20 19.3 19.2 38.8 1011.0 12.2 WSW 21.9 W 0.0 784.9
14:25 19.4 19.2 39.6 1010.9 14.0 WSW 24.7 WSW 0.0 443.4
14:30 18.8 19.1 43.4 1010.9 15.2 SW 25.4 SW 0.0 573.9
14:35 19.3 19.1 48.1 1010.8 14.4 SSW 24.7 WSW 0.0 741.4
14:40 19.2 19.3 46.3 1010.8 15.7 SSW 32.5 SSW 0.0 591.2
14:45 18.7 19.2 49.4 1010.8 14.5 S 26.1 SSE 0.0 417.2
14:50 18.5 19.1 50.2 1010.8 14.0 S 21.9 S 0.0 211.6
14:55 18.7 19.1 49.6 1010.7 13.1 SSW 26.1 SSW 0.0 520.9
15:00 18.7 19.2 50.0 1010.7 19.1 SSW 32.8 SSW 0.0 649.8
15:05 18.9 19.2 49.2 1010.7 18.3 SSW 33.2 SSW 0.0 742.7
15:10 18.7 19.3 49.5 1010.7 18.2 SSW 27.5 SSW 0.0 663.5
15:15 19.0 19.3 49.9 1010.7 13.5 SSW 25.1 S 0.0 533.8
15:20 18.8 19.2 49.5 1010.7 13.5 S 24.3 S 0.0 492.2
15:25 19.0 19.1 48.6 1010.7 13.3 SSW 25.1 SSW 0.0 671.5
15:30 19.1 19.2 48.5 1010.7 13.8 S 25.4 SSE 0.0 606.6
15:35 19.4 19.3 48.3 1010.7 11.0 SSW 18.4 S 0.0 659.5
15:40 19.9 19.5 47.5 1010.7 12.9 S 22.6 S 0.0 640.8
15:45 19.9 19.8 48.2 1010.7 14.3 S 22.2 S 0.0 613.0
15:50 19.3 19.8 48.5 1010.7 15.4 S 23.3 S 0.0 607.3
15:55 19.0 19.7 48.7 1010.7 16.9 S 25.1 S 0.0 583.1
16:00 18.8 19.5 50.2 1010.7 15.8 S 26.1 SSW 0.0 576.6
16:05 18.8 19.4 49.2 1010.7 14.7 S 23.6 S 0.0 585.1
16:10 18.9 19.4 49.8 1010.7 14.0 S 24.7 SSW 0.0 574.3
16:15 18.9 19.4 49.3 1010.8 16.8 S 25.1 SSW 0.0 552.0
16:20 18.7 19.4 49.7 1010.8 14.8 S 28.9 S 0.0 360.1
16:25 18.6 19.4 50.9 1010.8 11.5 S 20.5 S 0.0 464.0
16:30 18.3 19.3 51.0 1010.8 17.3 S 28.6 S 0.0 249.6
16:35 17.9 19.0 51.3 1010.9 12.8 S 22.6 S 0.0 241.9
16:40 17.8 18.7 51.6 1010.9 13.6 S 21.9 S 0.0 270.2
16:45 17.9 18.5 51.9 1010.9 11.4 S 21.2 S 0.0 443.0
16:50 18.5 18.6 51.0 1010.9 11.3 S 26.1 SSW 0.0 452.7
16:55 18.4 18.9 50.6 1011.0 12.3 S 22.6 S 0.0 397.0
17:00 18.1 18.9 51.7 1011.0 13.4 S 26.5 S 0.0 247.9
17:05 17.9 18.6 53.1 1011.0 11.3 S 21.2 SSE 0.0 309.9
17:10 18.0 18.4 52.7 1011.0 13.5 S 26.8 SSW 0.0 206.9
17:15 17.6 18.2 53.5 1011.1 13.8 S 23.6 SSE 0.0 222.9
17:20 17.4 18.0 54.1 1011.1 15.2 S 24.7 S 0.0 72.6
17:25 17.2 17.6 54.8 1011.1 14.6 S 22.6 S 0.0 87.9
17:30 17.1 17.4 55.0 1011.1 11.8 S 20.1 S 0.0 65.6
17:35 17.0 17.2 55.4 1011.2 10.2 S 15.9 SSW 0.0 52.2
17:40 16.8 16.9 56.6 1011.2 11.0 S 17.3 S 0.0 54.9
17:45 16.6 16.7 57.3 1011.3 10.2 S 15.2 S 0.0 47.6
17:50 16.6 16.6 57.4 1011.3 9.5 S 17.6 S 0.0 33.7
17:55 16.4 16.5 57.5 1011.4 11.3 S 19.8 SSW 0.0 37.0
18:00 16.3 16.3 58.1 1011.4 11.4 S 19.4 SSW 0.0 45.2
18:05 16.2 16.3 58.4 1011.5 10.3 S 17.3 SSW 0.0 42.9
18:10 16.2 16.3 58.7 1011.5 10.8 SSW 15.9 S 0.0 45.3
18:15 16.0 16.2 60.6 1011.6 9.7 SSW 14.5 SSW 0.0 41.5
18:20 15.9 16.1 62.0 1011.6 11.1 SSW 16.6 SSW 0.0 36.5
18:25 15.7 16.0 63.8 1011.8 10.4 SSW 18.0 SSW 0.0 29.1
18:30 15.6 15.9 64.7 1011.8 12.3 SSW 19.4 SSW 0.0 23.7
18:35 15.3 15.7 66.1 1011.9 11.1 SSW 16.9 SSW 0.0 16.4
18:40 15.2 15.6 67.1 1011.9 8.0 S 14.8 SSW 0.0 10.5
18:45 15.1 15.4 67.5 1012.0 8.9 S 15.9 SSW 0.0 6.2
18:50 15.0 15.3 67.6 1012.0 4.2 SSE 9.9 S 0.0 3.3
18:55 14.8 15.2 69.3 1012.3 3.2 SSE 10.2 SSE 0.0 1.9
19:00 14.6 15.0 70.4 1012.3 3.5 ENE 6.4 ENE 0.0 1.3
19:05 14.2 14.7 74.6 1012.5 3.2 NNE 5.6 NNE 0.0 0.8
19:10 14.0 14.4 72.5 1012.5 2.5 NE 9.2 NE 0.0 0.5
19:15 14.1 14.2 76.0 1012.6 8.9 NNE 12.4 NNE 0.0 0.3
19:20 13.8 14.0 80.2 1012.6 7.1 NNE 10.9 NNE 0.0 0.2
19:25 13.7 13.8 81.7 1012.7 4.3 NNE 6.0 NNE 0.0 0.1
19:30 13.5 13.7 82.3 1012.7 5.5 NE 9.2 NE 0.0 0.1
19:35 13.3 13.5 83.2 1012.8 3.3 NE 5.6 NE 0.0 0.1
19:40 13.0 13.2 84.0 1012.8 4.1 NE 9.9 ENE 0.0 0.1
19:45 12.8 12.9 84.2 1013.1 7.2 ENE 11.3 E 0.0 0.1
Màxima 19.9 28.9 100.0 1013.2 19.3 WSW 33.2 SSW 0.0 1108.0
Mínima 5.8 5.6 35.6 1010.7
Total 0.0